Ft Pierce, FL

6:29 PM EST on January 16, 2018 (GMT -0500)
Saint Lucie County International

Weather History for KFPR - December, 2013

Change the Weather History Date:

Monday, December 30, 2013

  Actual Average Record
Temperature  
Mean Temperature 64 °F 63 °F  
Max Temperature 72 °F 73 °F 85 °F (1914)
Min Temperature 57 °F 53 °F 28 °F (1909)
Degree Days  
Heating Degree Days 0 5  
Month to date heating degree days 94  
Since 1 July heating degree days 120  
Cooling Degree Days 0 2  
Month to date cooling degree days 99  
Year to date cooling degree days 3371  
Growing Degree Days 14 (Base 50)    
Moisture  
Dew Point 63 °F    
Average Humidity 87    
Maximum Humidity 94    
Minimum Humidity 75    
Precipitation  
Precipitation 0.00 in 0.04 in 1.86 in (1963)
Month to date precipitation 2.06  
Year to date precipitation 53.79  
Sea Level Pressure  
Sea Level Pressure 30.07 in    
Wind  
Wind Speed 3 mph (NNW)    
Max Wind Speed 9 mph    
Max Gust Speed -    
Visibility 9 miles    
Events      
T = Trace of Precipitation, MM = Missing Value Source: NWS Daily Summary

Daily Weather History Graph

Daily Weather History Graph

Search for Another Location

Airport or City:

Trip Planner

Search our weather history database for the weather conditions in past years. The results will help you decide how hot, cold, wet, or windy it might be!

Date:

Astronomy

Dec. 30, 2013 Rise Set
Actual Time 7:11 AM EST 5:37 PM EST
Civil Twilight 6:45 AM EST 6:02 PM EST
Nautical Twilight 6:16 AM EST 6:31 PM EST
Astronomical Twilight 5:48 AM EST 7:00 PM EST
Moon 5:03 AM EST (12/30) 4:04 PM EST (12/30)
Length of Visible Light 11h 17m
Length of Day
10h 25m
Waning Crescent, 5% of the Moon is Illuminated
Dec 30
Waning Crescent
Jan 1
New
Jan 7
First Quarter
Jan 15
Full
Jan 24
Last Quarter

Hourly Weather History & Observations

Time (EST) Temp. Dew Point Humidity Pressure Visibility Wind Dir Wind Speed Gust Speed Precip Events Conditions
12:38 AM 71.6 °F 69.8 °F 94% 30.01 in 6.0 mi Calm Calm - N/A   Overcast
12:45 AM 71.6 °F 69.8 °F 94% 30.01 in 8.0 mi Calm Calm - N/A   Overcast
12:53 AM 72.0 °F 69.1 °F 91% 30.01 in 10.0 mi Calm Calm - N/A   Overcast
1:53 AM 72.0 °F 69.1 °F 91% 30.00 in 10.0 mi WSW 4.6 mph - N/A   Overcast
2:11 AM 71.6 °F 68.0 °F 88% 30.00 in 10.0 mi SW 4.6 mph - N/A   Overcast
2:53 AM 70.0 °F 68.0 °F 93% 29.99 in 9.0 mi Calm Calm - N/A   Mostly Cloudy
3:06 AM 69.8 °F 68.0 °F 94% 29.99 in 9.0 mi Calm Calm - N/A   Mostly Cloudy
3:27 AM 69.8 °F 68.0 °F 94% 29.99 in 9.0 mi Calm Calm - N/A   Overcast
3:53 AM 71.1 °F 68.0 °F 90% 30.00 in 8.0 mi West 4.6 mph - N/A   Overcast
4:53 AM 68.0 °F 66.0 °F 93% 29.99 in 10.0 mi NW 6.9 mph - N/A   Overcast
5:14 AM 68.0 °F 64.4 °F 88% 30.00 in 10.0 mi NW 8.1 mph - N/A   Overcast
5:53 AM 66.9 °F 64.9 °F 93% 30.02 in 10.0 mi Calm Calm - N/A   Overcast
6:05 AM 66.2 °F 64.4 °F 94% 30.03 in 10.0 mi West 3.5 mph - N/A   Overcast
6:53 AM 66.9 °F 64.0 °F 90% 30.04 in 10.0 mi NW 3.5 mph - N/A   Overcast
7:53 AM 66.9 °F 64.0 °F 90% 30.08 in 10.0 mi NW 4.6 mph - N/A   Overcast
8:53 AM 66.9 °F 64.0 °F 90% 30.09 in 10.0 mi NNW 3.5 mph - N/A   Overcast
9:40 AM 68.0 °F 64.4 °F 88% 30.11 in 10.0 mi NNW 6.9 mph - N/A   Overcast
9:53 AM 68.0 °F 63.0 °F 84% 30.11 in 10.0 mi North 5.8 mph - N/A   Overcast
10:53 AM 70.0 °F 63.0 °F 78% 30.13 in 10.0 mi North 6.9 mph - N/A   Overcast
11:13 AM 69.8 °F 62.6 °F 78% 30.12 in 10.0 mi North 6.9 mph - N/A   Overcast
11:53 AM 71.1 °F 63.0 °F 75% 30.11 in 10.0 mi North 5.8 mph - N/A   Mostly Cloudy
12:53 PM 71.1 °F 63.0 °F 75% 30.10 in 10.0 mi North 5.8 mph - N/A   Overcast
1:53 PM 69.1 °F 61.0 °F 75% 30.10 in 10.0 mi North 9.2 mph - N/A   Overcast
2:53 PM 68.0 °F 61.0 °F 78% 30.10 in 10.0 mi North 8.1 mph - N/A   Overcast
3:53 PM 66.9 °F 60.1 °F 79% 30.09 in 10.0 mi NNE 5.8 mph - N/A   Overcast
4:53 PM 66.0 °F 60.1 °F 81% 30.09 in 10.0 mi North 6.9 mph - N/A   Scattered Clouds
5:12 PM 64.4 °F 60.8 °F 88% 30.11 in 9.0 mi North 8.1 mph - N/A   Mostly Cloudy
5:53 PM 64.0 °F 59.0 °F 84% 30.12 in 10.0 mi North 6.9 mph - N/A   Overcast
6:53 PM 63.0 °F 57.9 °F 84% 30.14 in 10.0 mi North 3.5 mph - N/A   Scattered Clouds
7:53 PM 61.0 °F 57.0 °F 87% 30.15 in 10.0 mi NNW 3.5 mph - N/A   Clear
8:53 PM 59.0 °F 55.9 °F 90% 30.16 in 7.0 mi NW 3.5 mph - N/A   Clear
9:53 PM 59.0 °F 57.0 °F 93% 30.18 in 8.0 mi Calm Calm - N/A   Scattered Clouds
10:53 PM 57.9 °F 55.9 °F 93% 30.18 in 8.0 mi NW 3.5 mph - N/A   Mostly Cloudy
11:53 PM 60.1 °F 57.0 °F 90% 30.18 in 10.0 mi Calm Calm - N/A   Overcast